Regional Weather Roundup
Issued by NWS Green Bay, WI

Home | Current Version | Previous Version | Text Only | Print | Product List | Glossary On
Versions: 1 2 3 4 5 6 7 8 9 10 11 12 13 14 15 16 17 18 19 20 21 22 23 24 25 26 27 28 29 30 31 32 33 34 35 36 37 38 39 40 41 42 43 44 45 46 47 48 49 50
000
ASUS43 KGRB 220310
RWRGRB

NORTH-CENTRAL AND NORTHEAST WISCONSIN REGIONAL WEATHER ROUNDUP
NATIONAL WEATHER SERVICE GREEN BAY WI
1000 PM CDT THU AUG 21 2014

WIZ005-009-010>012-018-019-220400-
NORTH CENTRAL WISCONSIN

CITY           SKY/WX    TMP DP  RH WIND       PRES   REMARKS
IRONWOOD       CLOUDY    70  66  88 E6        29.90S
MANITOWISH WTR CLOUDY    65  65  97 SE6       29.95S
ARBOR VITAE    CLOUDY    67  64  89 SE7       29.96S
EAGLE RIVER    CLOUDY    64  63  96 SE5       29.97R
LAND O LAKES   CLOUDY    65  63  91 S5        29.98S
RHINELANDER    CLOUDY    64  63  96 E9        29.97S
PHILLIPS       CLOUDY    66  65  96 SE6       29.93S
ANTIGO         CLOUDY    63  62  97 SE8       29.97F
TOMAHAWK       LGT RAIN  65  63  93 SE3       29.96R
MERRILL        CLOUDY    65  65 100 E5        29.95R FOG
$$

WIZ013-073-220400-
NORTHEAST WISCONSIN

CITY           SKY/WX    TMP DP  RH WIND       PRES   REMARKS
IRON MOUNTAIN  CLOUDY    65  62  90 SE5       29.97S
MARINETTE      CLOUDY    66  61  82 E5        29.96S
OCONTO         CLOUDY    66  64  95 E3        29.95R
$$

WIZ017-030-035>037-045-220400-
CENTRAL WISCONSIN

CITY           SKY/WX    TMP DP  RH WIND       PRES   REMARKS
MEDFORD        CLOUDY    67  67  99 SE6       29.93S FOG
WAUSAU         CLOUDY    65  65 100 E9        29.92S FOG
MOSINEE        FOG       66  66 100 E8        29.95S VSB 1/4
MARSHFIELD     CLOUDY    73  70  90 E3        29.92R
WISC RAPIDS    MOCLDY    73  70  90 SE7       29.92F
STEVENS POINT  CLOUDY    67  65  96 E8        29.94S FOG
WAUPACA        CLOUDY    71  69  92 NE5       29.94S
SHAWANO        CLOUDY    68  64  88 E6        29.96S
CLINTONVILLE   CLOUDY    66  63  88 E3        29.94S
$$

WIZ038-039-048-051-220400-
FOX VALLEY

CITY           SKY/WX    TMP DP  RH WIND       PRES   REMARKS
NWS GREEN BAY  CLOUDY    67  65  93 E5        29.95F
APPLETON       CLOUDY    70  66  88 VRB5      29.95F FOG
OSHKOSH        PTCLDY    71  69  93 SE7       29.93S
FOND DU LAC    MOCLDY    72  68  87 SE3       29.94S
$$

WIZ022-050-052-220400-
EAST CENTRAL WISCONSIN

CITY           SKY/WX    TMP DP  RH WIND       PRES   REMARKS
STURGEON BAY   CLOUDY    64  61  88 E6        29.97S
MANITOWOC      CLOUDY    66  65  96 SE3       29.96F FOG
SHEBOYGAN      FOG       67  66  97 CALM      29.96S VSB 1/4
$$

LMZ563-521-522-541>543-220400-
LAKESHORE

STATION/POSITION TIME  TEMP    WIND        PRES    VSBY  WAVE
                       AIR SEA DIR/SP/G                  HT/PER
                 (UTC) (F)     (DEG/KT/KT) (MB)    (MI)  (FT/S)
SHEBOYGAN LKSHOR 0300   66 66  100/  4/  4 1014.5F
KEWAUNEE LKSHORE 0300   65     110/  2/  4 1013.7F
ALGOMA MARINA    0200             CALM       N/A
TWO RIVERS CG    0300   65 72                N/A
NORTHPORT PIER   0300   66     110/  3/  4 1014.9S
N MID LAKE BUOY  0300   65 65  100/  6/  8 1014.5R         0
S GREEN BAY BUOY 0300   67     VRB  6      1015.4R
SISTER BAY LKSHO 0300   66     110/  7/  9   N/A
CHAMBERS ISLAND  0300   67      70/  3/  6 1014.9S
MENOMINEE LKSHOR 0300   68      90/  5/  6 1015.3R
$$



USA.gov is the U.S. government's official web portal to all federal, state and local government web resources and services.